GW1546 Weather Reports


Display with metric or nautical units.
time (UTC)temp
F
wind
direction
speed
MPH
gust
MPH
rain 1hr
in
rain 24hr
in
rain mn
in
humidity
%
barometer
mb
20260901150037 85 29 0.0 1.0 0.00 0.00 0.00 80 992.5
20260901145446 85 91 1.0 1.0 0.00 0.00 0.00 81 992.5
20260901144815 82 38 1.0 1.0 0.00 0.00 0.00 85 992.5
20260901144222 82 19 2.0 4.0 0.00 0.00 0.00 85 992.5
20260901143625 82 46 0.0 1.0 0.00 0.00 0.00 84 992.8
20260901143011 81 72 1.0 1.0 0.00 0.00 0.00 87 992.8
20260901142416 80 66 0.0 1.0 0.00 0.00 0.00 88 992.8
20260901141828 78 11 1.0 1.0 0.00 0.00 0.00 90 992.5
20260901141246 77 66 1.0 2.0 0.00 0.00 0.00 92 992.8
20260901140646 76 44 2.0 4.0 0.00 0.00 0.00 93 992.8
20260901140040 76 24 1.0 2.0 0.00 0.00 0.00 94 992.5
20260901135427 75 21 1.0 2.0 0.00 0.00 0.00 94 992.8
20260901134825 75 78 2.0 3.0 0.00 0.00 0.00 94 992.8
20260901134207 75 51 1.0 3.0 0.00 0.00 0.00 95 992.8
20260901133629 74 75 0.0 1.0 0.00 0.00 0.00 96 992.8
20260901133015 74 39 0.0 2.0 0.00 0.00 0.00 96 993.2
20260901132425 73 92 2.0 3.0 0.00 0.00 0.00 96 993.2
20260901131809 73 44 1.0 4.0 0.00 0.00 0.00 97 993.2
20260901131233 73 46 2.0 3.0 0.00 0.00 0.00 97 993.2
20260901130010 72 19 2.0 4.0 0.00 0.00 0.00 99 993.2
20260901124820 72 66 2.0 3.0 0.00 0.00 0.00 99 993.2
20260901124234 72 33 1.0 1.0 0.00 0.00 0.00 99 993.5
20260901123643 72 54 3.0 3.0 0.00 0.00 0.00 99 993.2
20260901123037 72 86 0.0 1.0 0.00 0.00 0.00 99 993.2
20260901121830 71 99 1.0 1.0 0.00 0.00 0.00 99 993.2
20260901121236 71 77 1.0 1.0 0.00 0.00 0.00 99 993.2
20260901120608 71 214 1.0 1.0 0.00 0.00 0.00 99 993.2
20260901120048 71 258 0.0 3.0 0.00 0.00 0.00 99 993.2
20260901115416 71 356 0.0 1.0 0.00 0.00 0.00 99 993.2
20260901114849 71 88 1.0 1.0 0.00 0.00 0.00 99 992.8
20260901113609 70 110 0.0 1.0 0.00 0.00 0.00 99 992.8
20260901113018 70 217 1.0 1.0 0.00 0.00 0.00 99 992.8
20260901112428 70 200 1.0 2.0 0.00 0.00 0.00 99 992.8
20260901111830 70 180 2.0 2.0 0.00 0.00 0.00 99 992.5
20260901111208 70 190 1.0 1.0 0.00 0.00 0.00 99 992.5
20260901110643 70 172 0.0 1.0 0.00 0.00 0.00 99 992.2
20260901110028 70 188 0.0 1.0 0.00 0.00 0.00 99 992.2
20260901105412 70 147 2.0 2.0 0.00 0.00 0.00 99 992.5
20260901104826 70 207 2.0 2.0 0.00 0.00 0.00 99 992.2
20260901104245 70 180 1.0 1.0 0.00 0.00 0.00 99 992.2
20260901103631 70 191 1.0 1.0 0.00 0.00 0.00 99 992.2
20260901102412 69 168 1.0 2.0 0.00 0.00 0.00 99 992.2
20260901101826 70 193 1.0 2.0 0.00 0.00 0.00 99 991.8
20260901101218 69 186 2.0 2.0 0.00 0.00 0.00 99 992.2
20260901100049 70 167 0.0 1.0 0.00 0.00 0.00 99 991.8
20260901095442 69 154 1.0 2.0 0.00 0.00 0.00 99 991.8
20260901094833 69 198 2.0 2.0 0.00 0.00 0.00 99 991.8
20260901094207 69 180 1.0 2.0 0.00 0.00 0.00 99 991.5
20260901093621 69 182 1.0 2.0 0.00 0.00 0.00 99 991.8
20260901091831 69 193 1.0 2.0 0.00 0.00 0.00 99 991.5
20260901091216 69 194 2.0 2.0 0.00 0.00 0.00 99 991.5
20260901090621 70 202 2.0 2.0 0.00 0.00 0.00 99 991.8
20260901085448 70 176 1.0 1.0 0.00 0.00 0.00 99 991.8
20260901084818 70 157 1.0 1.0 0.00 0.00 0.00 99 991.5
20260901084215 69 178 2.0 2.0 0.00 0.00 0.00 99 991.8
20260901083641 69 185 2.0 2.0 0.00 0.00 0.00 99 991.5
20260901083047 70 191 2.0 2.0 0.00 0.00 0.00 99 991.8
20260901081844 69 209 1.0 2.0 0.00 0.00 0.00 99 991.8
20260901081221 69 184 1.0 2.0 0.00 0.00 0.00 99 991.5
20260901080014 70 186 2.0 2.0 0.00 0.00 0.00 99 991.5
20260901074811 70 195 2.0 2.0 0.00 0.00 0.00 99 991.8
20260901074228 70 178 1.0 2.0 0.00 0.00 0.00 99 991.5
20260901073649 70 186 2.0 2.0 0.00 0.00 0.00 99 991.5
20260901073013 70 186 2.0 2.0 0.00 0.00 0.00 99 991.5
20260901071839 70 180 1.0 2.0 0.00 0.00 0.00 99 991.5
20260901071244 70 177 2.0 2.0 0.00 0.00 0.00 99 991.5
20260901070023 70 196 1.0 2.0 0.00 0.00 0.00 99 991.5
20260901065437 70 175 1.0 2.0 0.00 0.00 0.00 99 991.5
20260901064812 70 175 1.0 2.0 0.00 0.00 0.00 99 991.5
20260901064233 70 179 2.0 2.0 0.00 0.00 0.00 99 991.8
20260901063612 70 150 2.0 2.0 0.00 0.00 0.00 99 991.5
20260901063050 70 161 1.0 2.0 0.00 0.00 0.00 99 991.5
20260901062443 70 144 2.0 2.0 0.00 0.00 0.00 99 991.8
20260901061827 70 188 1.0 2.0 0.00 0.00 0.00 99 991.5
20260901060615 71 190 1.0 1.0 0.00 0.00 0.00 99 991.8
20260901055441 71 184 1.0 1.0 0.00 0.00 0.00 99 991.5
20260901054839 71 164 0.0 1.0 0.00 0.00 0.00 99 991.8
20260901054232 71 137 1.0 2.0 0.00 0.00 0.00 99 991.5
20260901053619 71 178 2.0 2.0 0.00 0.00 0.00 99 991.5
20260901053016 71 186 1.0 2.0 0.00 0.00 0.00 99 991.8
20260901052437 71 182 1.0 2.0 0.00 0.00 0.00 99 991.8
20260901051844 71 181 1.0 2.0 0.00 0.00 0.00 99 991.8
20260901051211 72 182 1.0 2.0 0.00 0.00 0.00 99 992.2
20260901050633 72 174 1.0 1.0 0.00 0.00 0.00 99 991.8
20260901050019 72 178 0.0 1.0 0.00 0.00 0.00 99 991.8
20260901045445 72 177 1.0 1.0 0.00 0.00 0.00 99 992.2
20260901044808 72 170 1.0 1.0 0.00 0.00 0.00 99 992.2
20260901044207 72 160 1.0 1.0 0.00 0.00 0.00 99 991.8
20260901043008 72 164 1.0 1.0 0.00 0.00 0.00 99 992.2
20260901042443 72 133 0.0 1.0 0.00 0.00 0.00 99 992.2
20260901041847 72 180 2.0 2.0 0.00 0.00 0.00 99 992.2
20260901035444 72 205 2.0 3.0 0.00 0.00 0.00 99 992.2
20260901034829 72 183 1.0 1.0 0.00 0.00 0.00 99 992.2
20260901034218 73 182 0.0 1.0 0.00 0.00 0.00 99 992.2
20260901033639 73 178 0.0 1.0 0.00 0.00 0.00 99 992.2
20260901033039 73 151 1.0 1.0 0.00 0.00 0.00 99 991.8
20260901032450 73 151 1.0 1.0 0.00 0.00 0.00 99 992.2
20260901031811 73 142 0.0 1.0 0.00 0.00 0.00 99 991.8
20260901031246 73 188 2.0 2.0 0.00 0.00 0.00 99 992.2
20260901030650 74 182 0.0 1.0 0.00 0.00 0.00 99 992.2
20260901030049 73 185 1.0 2.0 0.00 0.00 0.00 99 992.2
20260901025414 73 143 1.0 3.0 0.00 0.00 0.00 99 992.2
20260901024810 74 177 2.0 2.0 0.00 0.00 0.00 99 992.2
20260901024229 74 189 1.0 1.0 0.00 0.00 0.00 99 992.2
20260901023039 74 182 1.0 1.0 0.00 0.00 0.00 99 991.8
20260901022432 74 182 0.0 1.0 0.00 0.00 0.00 99 992.2
20260901021847 74 181 0.0 1.0 0.00 0.00 0.00 99 992.2
20260901021219 74 181 1.0 1.0 0.00 0.00 0.00 99 992.2
20260901020637 74 180 1.0 2.0 0.00 0.00 0.00 99 992.2
20260901020045 74 169 1.0 1.0 0.00 0.00 0.00 99 992.2
20260901014843 74 178 0.0 1.0 0.00 0.00 0.00 99 992.2
20260901014223 74 187 0.0 1.0 0.00 0.00 0.00 99 991.8
20260901013639 75 188 0.0 0.0 0.00 0.00 0.00 99 991.8
20260901013046 75 188 0.0 0.0 0.00 0.00 0.00 99 991.8
20260901012414 75 188 0.0 1.0 0.00 0.00 0.00 99 991.5
20260901011847 75 189 0.0 0.0 0.00 0.00 0.00 99 991.5
20260901011230 75 189 0.0 0.0 0.00 0.00 0.00 99 991.5
20260901010643 75 189 0.0 1.0 0.00 0.00 0.00 99 991.1
20260901010022 75 188 0.0 0.0 0.00 0.00 0.00 99 991.1
20260901005444 75 188 0.0 1.0 0.00 0.00 0.00 99 991.1
20260901004837 75 174 0.0 1.0 0.00 0.00 0.00 99 991.1
20260901004233 75 164 1.0 1.0 0.00 0.00 0.00 99 991.1
20260901003629 75 194 0.0 0.0 0.00 0.00 0.00 99 991.1
20260901003040 75 195 0.0 1.0 0.00 0.00 0.00 99 990.8
20260901002414 76 200 1.0 1.0 0.00 0.00 0.00 99 990.8
20260901001826 76 201 0.0 1.0 0.00 0.00 0.00 98 990.8
20260901000625 76 189 2.0 2.0 0.00 0.00 0.00 98 990.8
20260901000048 77 204 0.0 1.0 0.00 0.00 0.00 98 990.5
20260831235414 77 193 0.0 2.0 0.00 0.00 0.00 97 990.8
20260831233648 78 246 1.0 2.0 0.00 0.00 0.00 95 990.8
20260831233040 78 177 1.0 1.0 0.00 0.00 0.00 95 990.8
20260831232421 78 198 1.0 2.0 0.00 0.00 0.00 94 990.8
20260831231816 79 149 0.0 1.0 0.00 0.00 0.00 93 990.5
20260831230048 80 254 1.0 1.0 0.00 0.00 0.00 92 991.1
20260831225409 80 245 0.0 1.0 0.00 0.00 0.00 91 990.8
20260831224825 81 244 0.0 1.0 0.00 0.00 0.00 91 990.8
20260831224249 81 246 1.0 1.0 0.00 0.00 0.00 89 990.8
20260831223044 82 257 0.0 1.0 0.00 0.00 0.00 86 990.8
20260831222425 83 204 2.0 2.0 0.00 0.00 0.00 85 991.1
20260831221840 84 232 1.0 2.0 0.00 0.00 0.00 83 990.8
20260831221216 86 234 0.0 1.0 0.00 0.00 0.00 79 991.1
20260831214830 88 253 0.0 1.0 0.00 0.00 0.00 76 991.1
20260831214225 88 253 0.0 1.0 0.00 0.00 0.00 75 991.1
20260831213637 90 253 0.0 1.0 0.00 0.00 0.00 73 991.1
20260831212447 88 258 1.0 2.0 0.00 0.00 0.00 76 991.1
20260831211242 88 282 2.0 2.0 0.00 0.00 0.00 75 991.1
20260831210643 88 260 1.0 2.0 0.00 0.00 0.00 76 991.1
20260831210041 89 255 1.0 1.0 0.00 0.00 0.00 75 991.1
20260831205440 87 263 1.0 1.0 0.00 0.00 0.00 77 991.1
20260831204843 90 79 1.0 1.0 0.00 0.00 0.00 76 991.1
20260831204227 92 81 0.0 1.0 0.00 0.00 0.00 64 991.1
20260831203626 92 81 0.0 1.0 0.00 0.00 0.00 68 991.5
20260831203048 92 80 0.0 1.0 0.00 0.00 0.00 69 991.1
20260831201242 91 81 1.0 2.0 0.00 0.00 0.00 68 991.5
20260831200637 89 202 0.0 1.0 0.00 0.00 0.00 74 991.5
20260831200027 89 175 2.0 3.0 0.00 0.00 0.00 77 991.8
20260831195410 88 169 2.0 3.0 0.00 0.00 0.00 77 992.2
20260831194835 88 249 2.0 2.0 0.00 0.00 0.00 76 992.2
20260831194240 89 193 1.0 2.0 0.00 0.00 0.00 74 991.8
20260831193645 88 275 1.0 2.0 0.00 0.00 0.00 69 992.2
20260831193024 89 237 2.0 3.0 0.00 0.00 0.00 70 991.8
20260831192445 91 240 2.0 3.0 0.00 0.00 0.00 66 991.8
20260831191838 93 357 1.0 2.0 0.00 0.00 0.00 65 991.8
20260831191225 91 183 0.0 1.0 0.00 0.00 0.00 67 992.2
20260831190635 90 183 1.0 1.0 0.00 0.00 0.00 73 992.2
20260831190045 89 183 0.0 0.0 0.00 0.00 0.00 72 992.2
20260831185437 88 184 1.0 1.0 0.00 0.00 0.00 76 992.2
20260831184251 90 186 0.0 0.0 0.00 0.00 0.00 76 992.2
20260831183631 90 185 0.0 1.0 0.00 0.00 0.00 75 992.2
20260831183051 88 186 0.0 0.0 0.00 0.00 0.00 78 992.5
20260831182410 87 186 0.0 0.0 0.00 0.00 0.00 79 992.5
20260831181832 87 187 0.0 0.0 0.00 0.00 0.00 80 992.8
20260831180635 87 348 0.0 0.0 0.00 0.00 0.00 77 992.5
20260831180034 86 348 0.0 1.0 0.00 0.00 0.00 81 992.5
20260831175420 84 189 1.0 3.0 0.00 0.00 0.00 84 992.5
20260831174808 85 175 1.0 2.0 0.00 0.00 0.00 83 992.8
20260831174228 84 184 1.0 2.0 0.00 0.00 0.00 84 992.8
20260831173651 83 241 0.0 1.0 0.00 0.00 0.00 85 992.8
20260831172427 83 65 0.0 0.0 0.00 0.00 0.00 86 992.8
20260831171229 83 170 1.0 1.0 0.00 0.00 0.00 84 992.8
20260831170623 84 177 0.0 2.0 0.00 0.00 0.00 84 992.8
20260831165439 86 78 1.0 1.0 0.00 0.00 0.00 81 992.8
20260831164824 87 72 1.0 1.0 0.00 0.00 0.00 79 992.8
20260831164248 88 110 1.0 2.0 0.00 0.00 0.00 77 992.8
20260831163634 89 357 0.0 1.0 0.00 0.00 0.00 76 992.8
20260831163030 89 357 0.0 1.0 0.00 0.00 0.00 74 992.8
20260831162440 89 237 1.0 2.0 0.00 0.00 0.00 65 992.8
20260831161808 90 112 0.0 1.0 0.00 0.00 0.00 69 992.8
20260831161228 90 222 0.0 2.0 0.00 0.00 0.00 65 992.8
20260831160646 89 227 0.0 2.0 0.00 0.00 0.00 67 992.8
20260831160050 88 315 1.0 3.0 0.00 0.00 0.00 69 992.8
20260831155441 89 273 0.0 2.0 0.00 0.00 0.00 66 993.2
20260831154218 89 69 0.0 1.0 0.00 0.00 0.00 72 993.2
20260831153648 88 69 0.0 1.0 0.00 0.00 0.00 76 993.2
20260831153042 87 64 1.0 1.0 0.00 0.00 0.00 79 993.5
20260831152407 87 42 0.0 1.0 0.00 0.00 0.00 74 993.2
20260831151247 87 93 0.0 1.0 0.00 0.00 0.00 76 993.5
20260831150632 84 52 0.0 1.0 0.00 0.00 0.00 80 993.2